timestamp,wind_dir_avg,wind_spd_max_dir,wind_spd_avg,wind_spd_gust,battery_voltage,lat,long
2018-10-11 00:00:00+00:00,17.0,18.0,7.61,9.15,,47.59359,-54.27349
2018-10-11 00:10:00+00:00,359.0,1.0,6.6,8.67,,47.59359,-54.27349
2018-10-11 00:20:00+00:00,358.0,359.0,8.2,9.15,,47.59359,-54.27349
2018-10-11 00:30:00+00:00,354.0,355.0,7.43,8.98,,47.59359,-54.27349
2018-10-11 00:40:00+00:00,355.0,0.0,6.04,6.7,,47.59359,-54.27349
2018-10-11 00:50:00+00:00,358.0,0.0,6.72,7.92,,47.59359,-54.27349
2018-10-11 01:00:00+00:00,350.0,351.0,6.33,7.72,,47.59359,-54.27349
2018-10-11 01:10:00+00:00,347.0,339.0,5.99,7.24,,47.59359,-54.27349
2018-10-11 01:20:00+00:00,354.0,0.0,6.26,8.15,,47.59359,-54.27349
2018-10-11 01:30:00+00:00,351.0,354.0,6.37,7.08,,47.59359,-54.27349
2018-10-11 01:40:00+00:00,336.0,339.0,6.2,7.12,,47.59359,-54.27349
2018-10-11 01:50:00+00:00,345.0,344.0,7.72,9.46,,47.59359,-54.27349
2018-10-11 02:00:00+00:00,342.0,342.0,7.22,8.01,,47.59359,-54.27349
2018-10-11 02:10:00+00:00,347.0,330.0,7.28,9.9,,47.59359,-54.27349
2018-10-11 02:20:00+00:00,347.0,340.0,6.92,8.49,,47.59359,-54.27349
2018-10-11 02:30:00+00:00,354.0,355.0,7.19,8.75,,47.59359,-54.27349
2018-10-11 02:40:00+00:00,2.0,5.0,7.35,8.36,,47.59359,-54.27349
2018-10-11 02:50:00+00:00,353.0,348.0,7.05,8.66,,47.59359,-54.27349
2018-10-11 03:00:00+00:00,359.0,2.0,7.01,8.49,,47.59359,-54.27349
2018-10-11 03:10:00+00:00,357.0,359.0,7.53,8.78,,47.59359,-54.27349
2018-10-11 03:20:00+00:00,354.0,352.0,7.51,8.86,,47.59359,-54.27349
2018-10-11 03:30:00+00:00,346.0,355.0,6.94,8.53,,47.59359,-54.27349
2018-10-11 03:40:00+00:00,0.0,1.0,6.51,7.85,,47.59359,-54.27349
2018-10-11 03:50:00+00:00,5.0,2.0,7.7,8.55,,47.59359,-54.27349
2018-10-11 04:00:00+00:00,359.0,0.0,8.69,9.83,,47.59359,-54.27349
2018-10-11 04:10:00+00:00,354.0,357.0,8.87,10.12,,47.59359,-54.27349
2018-10-11 04:20:00+00:00,358.0,348.0,8.44,9.86,,47.59359,-54.27349
2018-10-11 04:30:00+00:00,1.0,2.0,8.26,10.19,,47.59359,-54.27349
2018-10-11 04:40:00+00:00,348.0,357.0,8.03,8.88,,47.59359,-54.27349
2018-10-11 04:50:00+00:00,1.0,356.0,7.59,8.93,,47.59359,-54.27349
2018-10-11 05:00:00+00:00,15.0,335.0,5.79,8.44,,47.59359,-54.27349
2018-10-11 05:10:00+00:00,6.0,358.0,5.57,6.74,,47.59359,-54.27349
2018-10-11 05:20:00+00:00,6.0,13.0,6.07,6.93,,47.59359,-54.27349
2018-10-11 05:30:00+00:00,5.0,14.0,7.67,8.83,,47.59359,-54.27349
2018-10-11 05:40:00+00:00,7.0,3.0,6.89,8.91,,47.59359,-54.27349
2018-10-11 05:50:00+00:00,353.0,348.0,8.79,9.7,,47.59359,-54.27349
2018-10-11 06:00:00+00:00,352.0,344.0,8.64,10.09,,47.59359,-54.27349
2018-10-11 06:10:00+00:00,8.0,7.0,7.68,9.63,,47.59359,-54.27349
2018-10-11 06:20:00+00:00,0.0,349.0,7.61,8.82,,47.59359,-54.27349
2018-10-11 06:30:00+00:00,350.0,1.0,7.35,8.0,,47.59359,-54.27349
2018-10-11 06:40:00+00:00,351.0,347.0,6.57,7.55,,47.59359,-54.27349
2018-10-11 06:50:00+00:00,344.0,350.0,6.48,7.87,,47.59359,-54.27349
2018-10-11 07:00:00+00:00,346.0,348.0,6.39,7.09,,47.59359,-54.27349
2018-10-11 07:10:00+00:00,343.0,345.0,6.21,7.09,,47.59359,-54.27349
2018-10-11 07:20:00+00:00,342.0,345.0,6.36,7.2,,47.59359,-54.27349
2018-10-11 07:30:00+00:00,331.0,333.0,5.83,7.09,,47.59359,-54.27349
2018-10-11 07:40:00+00:00,342.0,337.0,6.94,8.16,,47.59359,-54.27349
2018-10-11 07:50:00+00:00,340.0,338.0,7.84,8.78,,47.59359,-54.27349
2018-10-11 08:00:00+00:00,346.0,346.0,7.67,9.99,,47.59359,-54.27349
2018-10-11 08:10:00+00:00,344.0,341.0,6.81,7.99,,47.59359,-54.27349
2018-10-11 08:20:00+00:00,346.0,343.0,6.82,7.83,,47.59359,-54.27349
2018-10-11 08:30:00+00:00,348.0,350.0,6.74,7.9,,47.59359,-54.27349
2018-10-11 08:40:00+00:00,339.0,359.0,6.09,7.24,,47.59359,-54.27349
2018-10-11 08:50:00+00:00,340.0,343.0,6.49,7.64,,47.59359,-54.27349
2018-10-11 09:00:00+00:00,340.0,331.0,6.08,7.32,,47.59359,-54.27349
2018-10-11 09:10:00+00:00,330.0,334.0,6.69,8.34,,47.59359,-54.27349
2018-10-11 09:20:00+00:00,338.0,335.0,6.19,7.25,,47.59359,-54.27349
2018-10-11 09:30:00+00:00,336.0,337.0,6.72,7.64,,47.59359,-54.27349
2018-10-11 09:40:00+00:00,355.0,335.0,7.15,8.25,,47.59359,-54.27349
2018-10-11 09:50:00+00:00,342.0,344.0,8.04,9.45,,47.59359,-54.27349
2018-10-11 10:00:00+00:00,341.0,341.0,6.9,7.83,,47.59359,-54.27349
2018-10-11 10:10:00+00:00,339.0,340.0,7.48,8.32,,47.59359,-54.27349
2018-10-11 10:20:00+00:00,332.0,337.0,6.83,9.14,,47.59359,-54.27349
2018-10-11 10:30:00+00:00,336.0,336.0,7.17,8.82,,47.59359,-54.27349
2018-10-11 10:40:00+00:00,336.0,330.0,6.72,8.62,,47.59359,-54.27349
2018-10-11 10:50:00+00:00,331.0,335.0,7.56,8.95,,47.59359,-54.27349
2018-10-11 11:00:00+00:00,330.0,331.0,6.44,7.37,,47.59359,-54.27349
2018-10-11 11:10:00+00:00,335.0,340.0,6.85,8.33,,47.59359,-54.27349
2018-10-11 11:20:00+00:00,327.0,336.0,7.21,9.39,,47.59359,-54.27349
2018-10-11 11:30:00+00:00,329.0,337.0,7.78,8.75,,47.59359,-54.27349
2018-10-11 11:40:00+00:00,335.0,335.0,7.36,8.76,,47.59359,-54.27349
2018-10-11 11:50:00+00:00,342.0,341.0,7.77,9.72,,47.59359,-54.27349
2018-10-11 12:00:00+00:00,343.0,341.0,7.83,9.77,,47.59359,-54.27349
2018-10-11 12:10:00+00:00,353.0,354.0,9.05,11.2,,47.59359,-54.27349
2018-10-11 12:20:00+00:00,356.0,354.0,9.71,10.82,,47.59359,-54.27349
2018-10-11 12:30:00+00:00,5.0,7.0,10.9,12.32,,47.59359,-54.27349
2018-10-11 12:40:00+00:00,358.0,4.0,10.61,13.42,,47.59359,-54.27349
2018-10-11 12:50:00+00:00,359.0,357.0,11.65,13.96,,47.59359,-54.27349
2018-10-11 13:00:00+00:00,7.0,7.0,11.35,12.92,,47.59359,-54.27349
2018-10-11 13:10:00+00:00,358.0,358.0,10.68,12.2,,47.59359,-54.27349
2018-10-11 13:20:00+00:00,352.0,350.0,9.14,10.72,,47.59359,-54.27349
2018-10-11 13:30:00+00:00,357.0,358.0,8.41,9.44,,47.59359,-54.27349
2018-10-11 13:40:00+00:00,18.0,17.0,8.28,10.0,,47.59359,-54.27349
2018-10-11 13:50:00+00:00,16.0,7.0,8.6,10.9,,47.59359,-54.27349
2018-10-11 14:00:00+00:00,349.0,344.0,10.69,12.08,,47.59359,-54.27349
2018-10-11 14:10:00+00:00,1.0,356.0,8.85,10.27,,47.59359,-54.27349
2018-10-11 14:20:00+00:00,344.0,343.0,8.81,11.06,,47.59359,-54.27349
2018-10-11 14:30:00+00:00,352.0,355.0,11.13,12.56,,47.59359,-54.27349
2018-10-11 14:40:00+00:00,337.0,334.0,9.59,11.64,,47.59359,-54.27349
2018-10-11 14:50:00+00:00,3.0,8.0,11.07,13.69,,47.59359,-54.27349
2018-10-11 15:00:00+00:00,353.0,348.0,9.82,10.87,,47.59359,-54.27349
2018-10-11 15:10:00+00:00,10.0,17.0,9.82,11.29,,47.59359,-54.27349
2018-10-11 15:20:00+00:00,7.0,10.0,8.66,10.59,,47.59359,-54.27349
2018-10-11 15:30:00+00:00,341.0,343.0,9.22,11.0,,47.59359,-54.27349
2018-10-11 15:40:00+00:00,7.0,4.0,9.01,10.14,,47.59359,-54.27349
2018-10-11 15:50:00+00:00,8.0,5.0,9.39,10.83,,47.59359,-54.27349
2018-10-11 16:00:00+00:00,11.0,11.0,8.09,10.63,,47.59359,-54.27349
2018-10-11 16:10:00+00:00,16.0,10.0,7.36,9.21,,47.59359,-54.27349
2018-10-11 16:20:00+00:00,6.0,8.0,7.72,8.91,,47.59359,-54.27349
2018-10-11 16:30:00+00:00,4.0,9.0,9.87,11.88,,47.59359,-54.27349
2018-10-11 16:40:00+00:00,5.0,4.0,8.21,9.55,,47.59359,-54.27349
2018-10-11 16:50:00+00:00,5.0,356.0,8.99,10.5,,47.59359,-54.27349
2018-10-11 17:00:00+00:00,15.0,2.0,7.35,9.9,,47.59359,-54.27349
2018-10-11 17:10:00+00:00,28.0,28.0,6.69,7.59,,47.59359,-54.27349
2018-10-11 17:20:00+00:00,15.0,16.0,9.67,11.51,,47.59359,-54.27349
2018-10-11 17:30:00+00:00,4.0,356.0,6.43,8.53,,47.59359,-54.27349
2018-10-11 17:40:00+00:00,14.0,18.0,8.47,9.58,,47.59359,-54.27349
2018-10-11 17:50:00+00:00,7.0,7.0,9.35,10.75,,47.59359,-54.27349
2018-10-11 18:00:00+00:00,348.0,351.0,8.67,10.18,,47.59359,-54.27349
2018-10-11 18:10:00+00:00,21.0,29.0,8.07,9.75,,47.59359,-54.27349
2018-10-11 18:20:00+00:00,11.0,15.0,8.49,9.95,,47.59359,-54.27349
2018-10-11 18:30:00+00:00,1.0,4.0,8.26,9.47,,47.59359,-54.27349
2018-10-11 18:40:00+00:00,9.0,8.0,7.27,8.21,,47.59359,-54.27349
2018-10-11 18:50:00+00:00,0.0,6.0,7.0,8.72,,47.59359,-54.27349
2018-10-11 19:00:00+00:00,13.0,16.0,6.92,9.19,,47.59359,-54.27349
2018-10-11 19:10:00+00:00,356.0,356.0,8.87,10.37,,47.59359,-54.27349
2018-10-11 19:20:00+00:00,6.0,12.0,7.98,10.07,,47.59359,-54.27349
2018-10-11 19:30:00+00:00,20.0,16.0,7.45,9.23,,47.59359,-54.27349
2018-10-11 19:40:00+00:00,9.0,10.0,8.23,9.14,,47.59359,-54.27349
2018-10-11 19:50:00+00:00,358.0,0.0,6.27,7.83,,47.59359,-54.27349
2018-10-11 20:00:00+00:00,15.0,18.0,9.28,10.85,,47.59359,-54.27349
2018-10-11 20:10:00+00:00,21.0,25.0,6.23,7.77,,47.59359,-54.27349
2018-10-11 20:20:00+00:00,9.0,17.0,9.12,10.21,,47.59359,-54.27349
2018-10-11 20:30:00+00:00,12.0,14.0,8.32,9.78,,47.59359,-54.27349
2018-10-11 20:40:00+00:00,19.0,19.0,6.66,7.62,,47.59359,-54.27349
2018-10-11 20:50:00+00:00,34.0,38.0,8.62,9.95,,47.59359,-54.27349
2018-10-11 21:00:00+00:00,26.0,16.0,8.58,9.74,,47.59359,-54.27349
2018-10-11 21:10:00+00:00,31.0,26.0,8.27,9.1,,47.59359,-54.27349
2018-10-11 21:20:00+00:00,31.0,31.0,8.22,8.99,,47.59359,-54.27349
2018-10-11 21:30:00+00:00,20.0,24.0,8.63,10.1,,47.59359,-54.27349
2018-10-11 21:40:00+00:00,46.0,49.0,8.74,10.61,,47.59359,-54.27349
2018-10-11 21:50:00+00:00,38.0,39.0,8.63,9.88,,47.59359,-54.27349
2018-10-11 22:00:00+00:00,34.0,33.0,9.19,10.11,,47.59359,-54.27349
2018-10-11 22:10:00+00:00,36.0,36.0,8.7,10.02,,47.59359,-54.27349
2018-10-11 22:20:00+00:00,40.0,43.0,7.65,8.51,,47.59359,-54.27349
2018-10-11 22:30:00+00:00,40.0,41.0,8.44,9.63,,47.59359,-54.27349
2018-10-11 22:40:00+00:00,31.0,32.0,8.28,9.34,,47.59359,-54.27349
2018-10-11 22:50:00+00:00,41.0,43.0,7.97,8.58,,47.59359,-54.27349
2018-10-11 23:00:00+00:00,39.0,41.0,7.43,8.99,,47.59359,-54.27349
2018-10-11 23:10:00+00:00,39.0,46.0,6.89,8.39,,47.59359,-54.27349
2018-10-11 23:20:00+00:00,44.0,42.0,8.39,9.68,,47.59359,-54.27349
2018-10-11 23:30:00+00:00,42.0,42.0,8.48,9.8,,47.59359,-54.27349
2018-10-11 23:40:00+00:00,29.0,27.0,6.99,8.99,,47.59359,-54.27349
2018-10-11 23:50:00+00:00,29.0,31.0,6.46,7.26,,47.59359,-54.27349
